Wind_Speed
18 17 15 16 18 19 18 18 18 17 14 15 14 10 7 9 8 10 11 8 11 11 12 12 12 12 11 9 9 10 9 8 10 13 13 12 11 11 10 10 9 9 9
20 18 16 16 17 18 17 16 17 17 16 16 15 14 13 10 8 8 11 14 10 10 8 8 8 9 11 13 13 14 10 10 10 11 12 13 12 12 12 11 9 9 10
15 21 19 18 17 16 15 15 14 14 15 15 15 14 13 13 11 9 8 11 13 10 10 11 9 8 9 11 14 12 11 9 11 13 14 14 12 13 12 11 10 9 10
12 13 15 17 17 17 16 14 13 12 12 13 13 14 14 14 13 12 10 9 10 11 11 11 10 10 10 9 10 12 12 12 12 11 11 13 14 12 13 12 11 10 11
11 12 13 15 16 16 15 14 13 12 11 11 11 12 13 14 14 14 13 11 9 9 11 11 11 12 12 12 10 9 10 11 10 10 10 13 14 12 13 11 11 12 14
14 15 15 15 16 17 16 16 15 13 11 10 9 10 11 12 14 14 15 14 12 10 8 9 11 12 12 12 11 10 11 10 10 10 10 11 11 11 11 11 12 13 12
20 19 19 19 18 17 17 17 16 15 13 13 11 10 10 10 12 12 13 15 15 13 11 8 8 10 11 12 13 12 13 12 10 11 9 9 10 10 10 11 12 12 13
22 23 23 23 23 21 19 18 17 17 16 14 13 12 11 11 11 12 12 13 15 15 14 11 7 6 8 10 12 12 13 10 9 9 9 9 10 10 9 10 9 10 11
25 25 25 26 27 26 24 22 20 20 19 17 15 16 13 10 11 11 12 12 13 14 15 13 8 6 8 9 10 12 12 10 9 8 9 8 8 9 8 8 7 8 9
28 28 27 27 27 28 27 25 24 24 22 21 19 16 17 14 11 10 11 12 13 14 14 15 13 6 6 9 9 10 12 10 8 8 7 7 6 6 5 5 5 6 7
29 28 29 29 29 28 28 27 27 27 27 24 23 20 17 17 14 11 11 11 12 13 14 14 14 11 5 7 9 9 9 10 9 8 7 6 6 4 4 4 5 6 6
28 29 29 29 29 30 29 30 28 28 28 27 26 24 20 16 18 16 13 11 11 11 13 14 14 12 8 6 9 8 10 10 11 9 8 5 6 4 3 5 5 5 5
24 26 28 29 29 30 30 29 29 27 26 26 26 26 23 20 15 18 17 14 12 11 11 12 13 12 12 8 7 9 10 9 10 9 6 5 6 5 5 6 5 5 5
25 25 25 27 29 30 30 30 29 28 28 26 25 25 25 24 21 15 18 19 16 12 12 11 11 12 12 11 5 9 8 7 7 6 5 6 5 6 6 6 7 5 5
26 26 26 26 26 27 27 29 29 28 27 28 27 25 26 27 23 19 16 19 20 17 16 13 10 11 11 11 6 8 7 8 9 8 7 7 6 5 5 7 7 8 6
27 27 26 26 25 25 26 27 24 27 27 27 29 28 29 28 28 24 16 19 20 21 21 17 12 9 9 10 10 8 7 8 9 8 8 7 6 6 5 5 6 7 7
24 25 26 25 25 25 25 26 29 23 23 25 27 30 32 32 29 25 18 18 20 22 26 23 17 11 7 8 9 10 8 8 9 10 9 8 6 5 6 6 7 8 7
22 23 24 24 24 23 24 25 26 28 28 24 21 25 29 33 34 32 24 22 20 24 27 28 23 16 11 8 8 9 9 8 10 11 10 10 9 7 6 5 6 7 7
23 24 25 25 25 24 23 22 23 25 26 27 26 22 23 28 32 33 34 27 25 24 30 31 28 22 17 13 10 9 10 9 8 10 11 10 9 10 8 6 6 8 8
20 22 25 26 26 27 27 26 24 24 25 26 26 24 22 23 26 29 31 30 30 19 27 31 30 27 23 18 15 13 12 11 9 9 10 10 10 10 10 9 7 7 7
21 21 23 25 26 27 27 27 27 27 26 26 26 22 21 22 23 25 27 29 32 32 22 27 29 29 28 24 20 17 15 12 12 9 8 11 9 11 10 10 10 8 9
20 21 22 24 25 27 28 28 28 29 29 28 26 23 19 21 24 26 30 31 30 33 30 28 32 30 30 28 24 22 19 15 13 13 10 9 11 9 11 11 12 11 11
22 23 23 22 24 26 27 28 29 29 29 30 27 24 22 21 22 24 26 30 32 32 33 33 36 34 31 30 27 25 23 20 15 14 12 10 12 11 11 12 13 14 13
25 24 25 24 24 25 27 28 30 30 29 29 27 25 23 23 22 22 23 26 30 32 34 37 38 37 34 32 31 29 27 24 18 15 13 11 10 10 11 12 13 15 15
27 26 26 26 25 25 27 27 29 31 31 30 28 25 23 22 23 21 21 23 26 29 32 34 38 40 41 37 35 33 30 27 23 18 15 14 12 11 10 12 14 15 17
26 26 26 26 26 25 26 27 28 30 31 29 28 26 23 21 21 22 21 20 22 25 28 31 34 36 37 38 38 36 34 32 29 23 19 16 15 15 12 13 14 16 18
Wind_Direction
324 334 333 329 334 341 354 2 3 7 10 3 10 8 327 310 328 318 306 287 255 241 234 237 249 244 224 221 228 231 242 244 272 288 287 292 297 296 294 290 269 242 241
338 334 329 326 325 326 335 350 358 4 8 12 9 6 2 350 320 291 302 308 283 264 249 243 247 247 228 225 235 243 256 259 266 277 291 291 293 292 292 286 277 248 242
317 317 330 331 330 323 322 331 347 357 2 9 10 13 9 359 352 336 300 282 299 296 271 259 256 252 241 232 241 249 228 241 266 277 280 287 286 289 288 284 275 252 244
324 334 336 335 338 339 330 320 323 339 350 358 6 9 10 9 356 348 343 327 297 284 278 273 265 258 256 252 244 244 248 257 265 275 286 289 286 286 281 277 271 250 239
329 337 342 347 348 344 336 327 312 313 328 341 357 2 1 1 5 359 350 342 322 291 275 271 269 260 259 256 252 245 249 255 268 277 279 285 291 291 286 278 267 247 236
324 324 328 331 336 340 341 337 328 307 299 308 327 343 352 352 353 1 3 351 340 326 296 266 265 265 262 256 257 251 253 258 271 284 286 297 301 300 289 279 262 251 246
315 314 314 317 321 327 333 335 331 327 304 284 297 314 331 339 342 346 351 355 351 343 332 303 265 265 261 252 254 259 258 257 271 285 291 304 298 295 297 296 267 251 247
304 307 307 307 308 313 317 319 320 321 324 306 279 288 302 318 329 335 339 346 351 350 343 331 310 288 275 265 247 251 259 265 273 286 294 297 299 289 290 292 272 244 240
294 294 296 299 299 301 306 310 313 312 310 315 308 275 279 292 309 325 332 339 342 345 347 342 324 299 283 279 267 251 252 261 272 287 291 292 291 285 283 291 272 224 227
291 290 292 294 294 294 298 301 305 308 308 306 305 301 272 272 284 305 317 329 335 343 344 345 339 318 290 280 281 263 254 251 265 276 288 297 294 288 277 288 239 225 234
289 290 290 291 293 293 293 295 298 299 299 298 295 294 296 271 267 278 295 311 323 335 342 344 344 331 286 285 277 268 257 251 253 266 280 310 316 298 276 261 233 214 217
288 286 288 290 293 294 294 292 294 296 294 293 290 285 284 286 264 261 265 281 301 320 332 339 340 337 316 287 274 257 247 249 248 261 276 308 321 306 271 251 240 241 227
309 297 293 292 292 291 293 291 291 291 291 290 291 287 280 277 277 260 256 258 270 291 312 325 332 331 318 304 282 246 243 256 252 253 265 286 307 301 264 250 228 235 238
325 320 312 304 298 294 291 291 289 288 287 287 285 285 281 277 274 272 256 253 255 264 282 297 313 323 327 318 262 259 245 246 247 245 250 269 302 302 270 243 244 227 239
333 329 324 317 311 304 298 294 290 284 284 284 280 280 280 275 274 273 271 253 249 249 258 270 287 308 317 329 288 269 253 233 237 237 245 258 293 291 259 242 231 242 230
339 336 333 328 325 320 313 303 292 289 281 273 270 272 267 264 266 267 273 271 249 245 248 254 262 282 304 316 327 269 254 231 229 237 243 253 279 280 280 251 245 245 232
345 343 340 336 331 328 325 320 314 299 291 282 272 266 263 266 260 260 264 268 256 243 242 242 248 251 275 300 313 321 254 234 219 222 238 251 256 263 268 253 239 232 233
356 353 348 344 338 332 328 324 321 318 314 300 279 271 262 258 256 254 250 243 244 244 239 235 238 239 240 261 283 297 309 236 235 224 225 234 241 249 246 256 244 241 227
-0 359 357 354 349 341 333 325 320 316 313 310 305 288 274 259 253 250 250 243 231 245 241 236 233 234 233 238 252 267 274 282 237 234 231 228 231 237 239 239 244 233 218
353 359 1 357 353 349 345 337 329 320 313 310 308 307 297 277 257 248 247 244 231 235 242 248 238 237 235 232 237 251 263 273 270 241 231 235 229 229 232 235 235 228 211
339 348 353 353 354 352 348 344 339 330 321 310 304 305 302 293 275 256 245 238 234 233 225 230 241 237 234 232 231 239 251 265 274 263 253 219 239 238 225 228 231 220 208
327 335 340 343 345 348 349 346 341 337 332 322 308 296 292 285 280 268 251 241 235 233 229 228 235 234 229 230 230 231 240 250 266 268 256 237 218 243 232 219 222 220 212
314 319 324 331 336 339 343 345 343 339 335 328 319 303 290 283 279 275 263 251 241 234 231 227 230 233 227 227 228 228 234 241 248 265 257 249 220 223 237 226 220 216 218
304 308 312 318 324 330 335 339 341 340 338 334 324 313 299 283 280 277 271 257 247 239 232 227 228 231 228 226 226 226 229 238 241 248 247 245 233 219 235 231 220 213 213
299 302 304 308 313 319 325 332 337 339 340 340 335 324 310 295 276 274 274 266 252 243 235 229 227 229 231 230 227 223 224 232 237 240 242 242 230 221 231 236 225 214 210
296 299 302 305 307 311 315 322 331 337 338 341 342 338 328 311 296 276 268 268 257 246 238 231 228 226 225 227 226 224 224 228 236 237 238 237 222 224 227 234 229 217 208
Height
1534 1530 1527 1523 1521 1518 1515 1512 1509 1505 1502 1499 1494 1493 1491 1489 1487 1487 1487 1485 1486 1486 1487 1487 1487 1487 1488 1491 1493 1495 1496 1497 1497 1497 1495 1494 1492 1492 1491 1491 1491 1490 1493
1532 1530 1528 1524 1520 1517 1515 1512 1509 1506 1502 1499 1496 1494 1491 1489 1487 1488 1486 1485 1483 1483 1482 1484 1485 1486 1486 1488 1490 1491 1494 1493 1495 1495 1494 1492 1490 1490 1489 1490 1489 1488 1491
1532 1530 1526 1523 1519 1517 1514 1512 1509 1506 1503 1501 1498 1495 1493 1491 1489 1486 1485 1484 1483 1481 1481 1482 1483 1483 1485 1486 1487 1487 1489 1492 1492 1491 1491 1490 1489 1487 1487 1487 1487 1487 1488
1530 1527 1524 1522 1519 1516 1513 1510 1508 1505 1503 1502 1499 1497 1494 1492 1490 1487 1484 1482 1483 1483 1483 1482 1481 1482 1484 1484 1484 1485 1486 1488 1489 1489 1488 1488 1487 1486 1484 1484 1485 1485 1487
1528 1526 1523 1520 1517 1515 1512 1509 1507 1504 1503 1502 1499 1497 1495 1493 1491 1488 1484 1482 1482 1482 1481 1480 1480 1480 1481 1483 1482 1483 1484 1485 1486 1486 1486 1487 1485 1483 1482 1482 1483 1483 1483
1527 1525 1522 1519 1515 1512 1509 1506 1505 1503 1501 1501 1499 1497 1495 1493 1491 1489 1486 1485 1481 1479 1478 1477 1477 1478 1479 1480 1482 1482 1483 1484 1484 1484 1484 1484 1484 1482 1481 1480 1480 1481 1483
1525 1522 1519 1517 1513 1510 1507 1504 1502 1500 1498 1498 1496 1495 1494 1493 1492 1489 1487 1485 1483 1477 1475 1474 1474 1476 1477 1478 1480 1481 1481 1482 1481 1482 1482 1482 1481 1480 1479 1479 1479 1478 1480
1521 1518 1516 1513 1510 1507 1504 1502 1500 1498 1496 1494 1493 1492 1492 1490 1490 1489 1487 1484 1481 1478 1476 1473 1473 1473 1474 1476 1477 1478 1480 1480 1479 1480 1480 1479 1478 1478 1478 1478 1477 1476 1478
1516 1513 1510 1508 1505 1503 1500 1498 1497 1495 1493 1490 1488 1489 1489 1488 1488 1486 1485 1483 1482 1480 1477 1474 1472 1473 1472 1473 1474 1476 1476 1478 1478 1478 1478 1478 1477 1477 1476 1476 1475 1476 1476
1510 1507 1504 1501 1499 1497 1495 1493 1492 1490 1488 1487 1486 1485 1485 1485 1485 1484 1483 1481 1481 1479 1477 1474 1471 1469 1470 1471 1472 1473 1475 1475 1476 1477 1478 1477 1475 1475 1475 1474 1475 1476 1477
1503 1501 1499 1496 1493 1491 1489 1488 1486 1484 1483 1482 1482 1481 1482 1481 1481 1481 1481 1480 1479 1477 1476 1474 1471 1469 1468 1470 1469 1471 1473 1474 1474 1475 1476 1476 1475 1473 1473 1475 1475 1475 1476
1495 1493 1491 1489 1487 1484 1482 1482 1480 1478 1477 1476 1475 1476 1477 1477 1477 1478 1478 1478 1478 1476 1476 1474 1472 1470 1468 1468 1469 1469 1470 1471 1472 1473 1474 1474 1474 1473 1473 1473 1474 1476 1477
1488 1487 1485 1482 1480 1478 1476 1474 1473 1472 1471 1470 1469 1469 1470 1471 1472 1473 1473 1474 1475 1474 1474 1472 1472 1470 1468 1466 1466 1467 1467 1469 1471 1472 1472 1474 1473 1473 1473 1474 1474 1476 1477
1484 1481 1477 1474 1472 1471 1469 1467 1466 1465 1464 1464 1463 1463 1463 1463 1465 1467 1468 1469 1470 1471 1471 1471 1470 1469 1467 1465 1464 1465 1466 1468 1469 1470 1470 1471 1473 1473 1473 1473 1474 1476 1478
1480 1476 1472 1468 1465 1462 1461 1459 1458 1458 1458 1457 1457 1457 1456 1456 1459 1460 1462 1463 1465 1466 1466 1468 1468 1467 1466 1465 1463 1463 1464 1466 1467 1468 1469 1470 1471 1472 1472 1473 1474 1476 1477
1478 1473 1468 1464 1460 1457 1453 1450 1451 1449 1449 1449 1449 1449 1449 1449 1451 1452 1455 1457 1459 1460 1461 1463 1465 1465 1465 1464 1462 1461 1462 1463 1465 1466 1468 1469 1470 1471 1471 1471 1472 1474 1476
1476 1471 1466 1461 1457 1453 1449 1445 1440 1441 1440 1440 1440 1440 1441 1442 1443 1445 1448 1450 1452 1454 1454 1458 1460 1462 1462 1462 1461 1460 1459 1461 1462 1463 1465 1467 1468 1469 1469 1470 1471 1474 1476
1475 1470 1465 1460 1455 1451 1446 1442 1439 1435 1431 1430 1432 1431 1432 1432 1434 1436 1439 1441 1444 1446 1448 1452 1455 1458 1459 1459 1459 1459 1459 1458 1460 1461 1462 1464 1466 1467 1468 1469 1471 1472 1475
1474 1469 1464 1459 1454 1449 1444 1440 1437 1433 1429 1426 1423 1424 1424 1423 1424 1427 1430 1433 1437 1439 1442 1445 1449 1452 1455 1456 1456 1456 1457 1457 1457 1458 1460 1461 1462 1464 1466 1468 1469 1471 1473
1473 1467 1462 1458 1452 1447 1442 1437 1432 1429 1425 1422 1419 1417 1416 1415 1415 1418 1421 1424 1429 1431 1435 1438 1443 1446 1449 1451 1452 1453 1453 1454 1454 1454 1457 1458 1460 1461 1464 1466 1468 1470 1472
1470 1465 1460 1456 1451 1446 1440 1435 1430 1424 1420 1417 1414 1413 1411 1409 1407 1408 1411 1414 1418 1422 1426 1429 1434 1438 1442 1445 1448 1449 1450 1451 1451 1452 1453 1456 1458 1459 1461 1464 1466 1468 1471
1466 1462 1458 1454 1449 1444 1439 1433 1428 1422 1416 1411 1408 1406 1406 1404 1402 1401 1402 1404 1408 1412 1417 1421 1425 1429 1433 1438 1442 1444 1446 1447 1449 1449 1451 1452 1455 1456 1458 1460 1463 1466 1469
1462 1458 1455 1451 1446 1441 1436 1431 1425 1419 1413 1408 1403 1399 1398 1396 1395 1394 1394 1396 1399 1402 1407 1412 1416 1420 1425 1430 1435 1439 1441 1443 1446 1447 1447 1449 1451 1453 1456 1458 1460 1464 1467
1456 1453 1450 1446 1442 1438 1433 1427 1422 1417 1410 1404 1398 1393 1390 1389 1388 1387 1387 1387 1389 1393 1397 1403 1407 1412 1417 1422 1427 1432 1435 1438 1441 1443 1444 1446 1448 1451 1453 1455 1458 1461 1465
1450 1447 1444 1440 1436 1433 1428 1424 1419 1413 1407 1400 1394 1389 1385 1382 1380 1380 1380 1380 1381 1384 1388 1393 1398 1403 1409 1414 1419 1424 1429 1432 1435 1438 1440 1442 1445 1448 1450 1452 1455 1458 1462
1442 1440 1437 1434 1431 1427 1423 1419 1414 1409 1403 1397 1391 1385 1381 1377 1374 1373 1374 1374 1374 1376 1379 1384 1389 1394 1400 1405 1411 1416 1422 1426 1429 1433 1436 1438 1441 1444 1447 1450 1452 1455 1458